Regional Weather Roundup
Issued by NWS Albany, NY

Home | Current Version | Previous Version | Graphics & Text | Print | Product List | Glossary On
Versions: 1 2 3 4 5 6 7 8 9 10 11 12 13 14 15 16 17 18 19 20 21 22 23 24 25 26 27 28 29 30 31 32 33 34 35 36 37 38 39 40 41 42 43 44 45 46 47 48 49 50
000
ASUS41 KALY 291310
RWRALY

NEW YORK STATE HOURLY WEATHER ROUNDUP
NATIONAL WEATHER SERVICE ALBANY NY
900 AM EDT MON SEP 29 2014

NOTE: "FAIR" INDICATES FEW OR NO CLOUDS BELOW 12,000 FEET WITH NO
SIGNIFICANT WEATHER AND/OR NO OBSTRUCTIONS TO VISIBILITY.

NYZ032-033-038>043-046>054-057>066-NYZ062>081-291400-
EAST


CITY           SKY/WX    TMP DP  RH WIND       PRES   REMARKS
ALBANY         CLOUDY    60  55  83 CALM      30.01S
GLENS FALLS    PTSUNNY   54  52  93 CALM      30.00F
POUGHKEEPSIE   CLOUDY    61  58  90 CALM      29.99R
NEWBURGH       PTSUNNY   63  59  88 CALM      30.01S
MONTGOMERY     PTSUNNY   61  57  87 S3        29.99F
WHITE PLAINS   CLOUDY    67  61  81 NW7       29.98S
ISLIP          CLOUDY    66  61  84 SW3       29.97S
NEW YORK CITY  CLOUDY    69  59  70 NW5       29.97F
CENTRAL PARK   CLOUDY    69  58  67 CALM      30.00F
$$

NYZ005>009-017-018-044>046-055-056-291400-
CENTRAL


CITY           SKY/WX    TMP DP  RH WIND       PRES   REMARKS
FULTON         PTSUNNY   58  57  97 CALM      30.00S FOG
SYRACUSE       CLOUDY    58  55  90 CALM      30.00S
ROME           CLOUDY    55  53  93 CALM      30.03S
ELMIRA         FOG       54  54 100 W3        30.02S VSB 1/4
BINGHAMTON     CLOUDY    57  56  96 CALM      30.02S
MONTICELLO     CLOUDY    57  55  94 CALM      30.03F
$$

NYZ026>034-041>043-291400-
NORTH


CITY           SKY/WX    TMP DP  RH WIND       PRES   REMARKS
WATERTOWN      MOSUNNY   65  53  65 CALM      30.00S
FORT DRUM      NOT AVBL
MASSENA        SUNNY     60  54  80 CALM      30.00S
SARANAC LAKE   MOSUNNY   49  49 100 CALM      30.02F
PLATTSBURGH    MOSUNNY   62  59  90 E3        30.00S
$$

NYZ001>004-010>016-019>021-291400-
WEST


CITY           SKY/WX    TMP DP  RH WIND       PRES   REMARKS
NIAGARA FALLS  PTSUNNY   64  61  90 S6        30.00F FOG
BUFFALO        PTSUNNY   61  55  81 CALM      30.01F
DUNKIRK        SUNNY     61  55  81 CALM      30.02S
JAMESTOWN      PTSUNNY   55  54  94 SE3       30.04S
WELLSVILLE     SUNNY     57  54  89 CALM      30.05F
ROCHESTER      PTSUNNY   58  56  93 SW3       30.01S
PENN YAN       MOSUNNY   59  58  96 S5        30.02S
$$

             KEY
       WCI = WIND CHILL INDEX
       VSB = VISIBILITY
       HX  = HEAT INDEX
$$



USA.gov is the U.S. government's official web portal to all federal, state and local government web resources and services.